| time (UTC) | temp C | wind direction | speed KPH | gust KPH | rain 1hr cm | rain 24hr cm | rain mn cm | humidity % | barometer mb |
| 20260507231528 | 15 | 303 | 0.0 | 6.4 | 0.00 | 0.00 | 0.00 | 38 | 1010.6 |
| 20260507231004 | 15 | 266 | 1.6 | 6.4 | 0.00 | 0.00 | 0.00 | 36 | 1010.5 |
| 20260507230506 | 15 | 298 | 0.0 | 11.3 | 0.00 | 0.00 | 0.00 | 36 | 1010.5 |
| 20260507230014 | 15 | 291 | 0.0 | 12.9 | 0.00 | 0.00 | 0.00 | 37 | 1010.5 |
| 20260507225507 | 15 | 306 | 3.2 | 12.9 | 0.00 | 0.00 | 0.00 | 37 | 1010.5 |
| 20260507225007 | 16 | 287 | 1.6 | 16.1 | 0.00 | 0.00 | 0.00 | 36 | 1010.5 |
| 20260507224520 | 16 | 288 | 3.2 | 16.1 | 0.00 | 0.00 | 0.00 | 35 | 1010.5 |
| 20260507224009 | 16 | 263 | 1.6 | 20.9 | 0.00 | 0.00 | 0.00 | 36 | 1010.4 |
| 20260507223509 | 16 | 56 | 4.8 | 20.9 | 0.00 | 0.00 | 0.00 | 35 | 1010.4 |
| 20260507223004 | 16 | 298 | 1.6 | 19.3 | 0.00 | 0.00 | 0.00 | 35 | 1010.3 |
| 20260507222503 | 16 | 289 | 8.0 | 19.3 | 0.00 | 0.00 | 0.00 | 34 | 1010.2 |
| 20260507222003 | 16 | 292 | 0.0 | 11.3 | 0.00 | 0.00 | 0.00 | 34 | 1010.0 |
| 20260507221507 | 17 | 312 | 1.6 | 11.3 | 0.00 | 0.00 | 0.00 | 33 | 1010.0 |
| 20260507221008 | 17 | 344 | 1.6 | 11.3 | 0.00 | 0.00 | 0.00 | 34 | 1010.0 |
| 20260507220504 | 17 | 5 | 0.0 | 4.8 | 0.00 | 0.00 | 0.00 | 35 | 1009.9 |
| 20260507220016 | 17 | 275 | 0.0 | 16.1 | 0.00 | 0.00 | 0.00 | 34 | 1009.9 |
| 20260507215505 | 17 | 331 | 0.0 | 16.1 | 0.00 | 0.00 | 0.00 | 34 | 1009.9 |
| 20260507215006 | 17 | 341 | 1.6 | 12.9 | 0.00 | 0.00 | 0.00 | 37 | 1009.8 |
| 20260507214519 | 16 | 28 | 1.6 | 11.3 | 0.00 | 0.00 | 0.00 | 34 | 1009.8 |
| 20260507214008 | 16 | 297 | 0.0 | 17.7 | 0.00 | 0.00 | 0.00 | 36 | 1009.7 |
| 20260507213507 | 16 | 313 | 1.6 | 17.7 | 0.00 | 0.00 | 0.00 | 33 | 1009.6 |
| 20260507213027 | 16 | 348 | 3.2 | 17.7 | 0.00 | 0.00 | 0.00 | 33 | 1009.7 |
| 20260507212509 | 17 | 333 | 1.6 | 14.5 | 0.00 | 0.00 | 0.00 | 36 | 1009.9 |
| 20260507212007 | 16 | 347 | 1.6 | 14.5 | 0.00 | 0.00 | 0.00 | 34 | 1009.9 |
| 20260507211505 | 16 | 316 | 0.0 | 16.1 | 0.00 | 0.00 | 0.00 | 35 | 1009.8 |
| 20260507211005 | 16 | 5 | 1.6 | 16.1 | 0.00 | 0.00 | 0.00 | 35 | 1009.8 |
| 20260507210504 | 17 | 326 | 0.0 | 6.4 | 0.00 | 0.00 | 0.00 | 36 | 1009.6 |
| 20260507210012 | 16 | 275 | 0.0 | 4.8 | 0.00 | 0.00 | 0.00 | 36 | 1009.5 |
| 20260507205508 | 16 | 352 | 0.0 | 6.4 | 0.00 | 0.00 | 0.00 | 36 | 1009.4 |
| 20260507205005 | 16 | 36 | 0.0 | 16.1 | 0.00 | 0.00 | 0.00 | 36 | 1009.7 |
| 20260507204517 | 16 | 306 | 0.0 | 16.1 | 0.00 | 0.00 | 0.00 | 36 | 1009.6 |
| 20260507204006 | 16 | 331 | 3.2 | 11.3 | 0.00 | 0.00 | 0.00 | 35 | 1009.5 |
| 20260507203506 | 16 | 329 | 0.0 | 6.4 | 0.00 | 0.00 | 0.00 | 34 | 1009.5 |
| 20260507203037 | 17 | 279 | 0.0 | 8.0 | 0.00 | 0.00 | 0.00 | 34 | 1009.6 |
| 20260507202512 | 17 | 288 | 0.0 | 8.0 | 0.00 | 0.00 | 0.00 | 36 | 1009.6 |
| 20260507202010 | 17 | 202 | 1.6 | 9.7 | 0.00 | 0.00 | 0.00 | 35 | 1009.5 |
| 20260507201523 | 17 | 331 | 0.0 | 9.7 | 0.00 | 0.00 | 0.00 | 36 | 1009.5 |
| 20260507201004 | 17 | 13 | 0.0 | 9.7 | 0.00 | 0.00 | 0.00 | 35 | 1009.6 |
| 20260507200504 | 17 | 311 | 1.6 | 9.7 | 0.00 | 0.00 | 0.00 | 35 | 1009.8 |
| 20260507200009 | 16 | 188 | 0.0 | 8.0 | 0.00 | 0.00 | 0.00 | 35 | 1009.7 |
| 20260507195504 | 16 | 266 | 0.0 | 14.5 | 0.00 | 0.00 | 0.00 | 36 | 1009.8 |
| 20260507195004 | 17 | 178 | 3.2 | 14.5 | 0.00 | 0.00 | 0.00 | 37 | 1009.8 |
| 20260507194525 | 16 | 182 | 0.0 | 9.7 | 0.00 | 0.00 | 0.00 | 35 | 1009.8 |
| 20260507194007 | 17 | 273 | 1.6 | 16.1 | 0.00 | 0.00 | 0.00 | 36 | 1009.8 |
| 20260507193507 | 17 | 236 | 4.8 | 14.5 | 0.00 | 0.00 | 0.00 | 35 | 1009.8 |
| 20260507193020 | 16 | 302 | 0.0 | 9.7 | 0.00 | 0.00 | 0.00 | 34 | 1010.0 |
| 20260507192508 | 17 | 281 | 3.2 | 12.9 | 0.00 | 0.00 | 0.00 | 35 | 1009.9 |
| 20260507192009 | 17 | 290 | 3.2 | 16.1 | 0.00 | 0.00 | 0.00 | 36 | 1009.9 |
| 20260507191529 | 17 | 267 | 1.6 | 16.1 | 0.00 | 0.00 | 0.00 | 36 | 1009.9 |
| 20260507191015 | 17 | 301 | 1.6 | 11.3 | 0.00 | 0.00 | 0.00 | 37 | 1010.0 |
| 20260507190504 | 17 | 289 | 0.0 | 12.9 | 0.00 | 0.00 | 0.00 | 37 | 1010.0 |
| 20260507190013 | 16 | 321 | 1.6 | 12.9 | 0.00 | 0.00 | 0.00 | 40 | 1010.1 |
| 20260507185507 | 16 | 315 | 0.0 | 11.3 | 0.00 | 0.00 | 0.00 | 1010.3 | |
| 20260507185004 | 16 | 289 | 0.0 | 11.3 | 0.00 | 0.00 | 0.00 | 40 | 1010.3 |
| 20260507184520 | 16 | 280 | 0.0 | 11.3 | 0.00 | 0.00 | 0.00 | 40 | 1010.3 |
| 20260507184004 | 16 | 304 | 0.0 | 12.9 | 0.00 | 0.00 | 0.00 | 38 | 1010.4 |
| 20260507183506 | 16 | 274 | 3.2 | 12.9 | 0.00 | 0.00 | 0.00 | 39 | 1010.4 |
| 20260507183018 | 16 | 199 | 1.6 | 9.7 | 0.00 | 0.00 | 0.00 | 39 | 1010.4 |
| 20260507182507 | 16 | 217 | 1.6 | 12.9 | 0.00 | 0.00 | 0.00 | 38 | 1010.4 |
| 20260507182009 | 16 | 329 | 1.6 | 12.9 | 0.00 | 0.00 | 0.00 | 41 | 1010.4 |
| 20260507181521 | 16 | 290 | 0.0 | 9.7 | 0.00 | 0.00 | 0.00 | 43 | 1010.6 |
| 20260507181013 | 16 | 309 | 0.0 | 3.2 | 0.00 | 0.00 | 0.00 | 43 | 1010.7 |
| 20260507180511 | 16 | 316 | 0.0 | 1.6 | 0.00 | 0.00 | 0.00 | 41 | 1010.7 |
| 20260507180028 | 16 | 236 | 0.0 | 6.4 | 0.00 | 0.00 | 0.00 | 42 | 1010.8 |
| 20260507175503 | 15 | 350 | 0.0 | 6.4 | 0.00 | 0.00 | 0.00 | 43 | 1010.9 |
| 20260507175003 | 15 | 350 | 1.6 | 6.4 | 0.00 | 0.00 | 0.00 | 41 | 1010.9 |
| 20260507174518 | 15 | 322 | 1.6 | 9.7 | 0.00 | 0.00 | 0.00 | 41 | 1011.0 |
| 20260507174008 | 16 | 123 | 0.0 | 11.3 | 0.00 | 0.00 | 0.00 | 40 | 1011.0 |
| 20260507173504 | 15 | 201 | 3.2 | 11.3 | 0.00 | 0.00 | 0.00 | 39 | 1011.1 |
| 20260507173045 | 15 | 242 | 1.6 | 12.9 | 0.00 | 0.00 | 0.00 | 39 | 1011.1 |
| 20260507172505 | 16 | 306 | 1.6 | 12.9 | 0.00 | 0.00 | 0.00 | 40 | 1011.1 |
| 20260507172008 | 16 | 214 | 0.0 | 6.4 | 0.00 | 0.00 | 0.00 | 41 | 1011.2 |
| 20260507171525 | 15 | 229 | 0.0 | 12.9 | 0.00 | 0.00 | 0.00 | 42 | 1011.2 |
| 20260507171009 | 15 | 313 | 3.2 | 12.9 | 0.00 | 0.00 | 0.00 | 42 | 1011.3 |
| 20260507170508 | 15 | 219 | 0.0 | 4.8 | 0.00 | 0.00 | 0.00 | 41 | 1011.3 |
| 20260507170026 | 15 | 332 | 0.0 | 9.7 | 0.00 | 0.00 | 0.00 | 44 | 1011.4 |
| 20260507165509 | 15 | 96 | 0.0 | 9.7 | 0.00 | 0.00 | 0.00 | 40 | 1011.4 |
| 20260507165011 | 15 | 13 | 0.0 | 4.8 | 0.00 | 0.00 | 0.00 | 40 | 1011.5 |
| 20260507164511 | 15 | 335 | 0.0 | 6.4 | 0.00 | 0.00 | 0.00 | 41 | 1011.5 |
| 20260507164004 | 15 | 300 | 0.0 | 6.4 | 0.00 | 0.00 | 0.00 | 43 | 1011.6 |
| 20260507163512 | 15 | 298 | 0.0 | 6.4 | 0.00 | 0.00 | 0.00 | 43 | 1011.7 |
| 20260507163016 | 15 | 219 | 0.0 | 4.8 | 0.00 | 0.00 | 0.00 | 41 | 1011.7 |
| 20260507162509 | 15 | 327 | 0.0 | 3.2 | 0.00 | 0.00 | 0.00 | 45 | 1011.7 |
| 20260507162006 | 15 | 214 | 0.0 | 0.0 | 0.00 | 0.00 | 0.00 | 43 | 1011.8 |
| 20260507161520 | 15 | 286 | 0.0 | 1.6 | 0.00 | 0.00 | 0.00 | 44 | 1011.9 |
| 20260507161009 | 15 | 286 | 0.0 | 3.2 | 0.00 | 0.00 | 0.00 | 43 | 1011.9 |
| 20260507160506 | 14 | 182 | 0.0 | 11.3 | 0.00 | 0.00 | 0.00 | 43 | 1012.0 |
| 20260507160024 | 14 | 244 | 0.0 | 11.3 | 0.00 | 0.00 | 0.00 | 43 | 1012.1 |
| 20260507155515 | 15 | 18 | 0.0 | 6.4 | 0.00 | 0.00 | 0.00 | 43 | 1012.1 |
| 20260507155014 | 15 | 288 | 0.0 | 9.7 | 0.00 | 0.00 | 0.00 | 43 | 1012.1 |
| 20260507154528 | 15 | 360 | 1.6 | 9.7 | 0.00 | 0.00 | 0.00 | 43 | 1012.1 |
| 20260507154011 | 15 | 301 | 0.0 | 8.0 | 0.00 | 0.00 | 0.00 | 42 | 1012.2 |
| 20260507153504 | 15 | 145 | 1.6 | 8.0 | 0.00 | 0.00 | 0.00 | 41 | 1012.3 |
| 20260507153016 | 15 | 246 | 1.6 | 8.0 | 0.00 | 0.00 | 0.00 | 44 | 1012.3 |
| 20260507152504 | 14 | 205 | 0.0 | 4.8 | 0.00 | 0.00 | 0.00 | 45 | 1012.2 |
| 20260507152013 | 14 | 57 | 0.0 | 4.8 | 0.00 | 0.00 | 0.00 | 46 | 1012.3 |
| 20260507151518 | 14 | 242 | 0.0 | 16.1 | 0.00 | 0.00 | 0.00 | 44 | 1012.3 |
| 20260507151011 | 13 | 194 | 4.8 | 16.1 | 0.00 | 0.00 | 0.00 | 46 | 1012.5 |
| 20260507150513 | 13 | 5 | 1.6 | 11.3 | 0.00 | 0.00 | 0.00 | 1012.5 | |
| 20260507150033 | 13 | 168 | 0.0 | 11.3 | 0.00 | 0.00 | 0.00 | 46 | 1012.8 |
| 20260507145507 | 13 | 323 | 1.6 | 8.0 | 0.00 | 0.00 | 0.00 | 46 | 1012.9 |
| 20260507145016 | 13 | 202 | 0.0 | 9.7 | 0.00 | 0.00 | 0.00 | 49 | 1013.0 |
| 20260507144527 | 14 | 275 | 0.0 | 9.7 | 0.00 | 0.03 | 0.00 | 46 | 1013.0 |
| 20260507144011 | 14 | 172 | 0.0 | 8.0 | 0.00 | 0.03 | 0.00 | 46 | 1013.0 |
| 20260507143512 | 13 | 217 | 0.0 | 6.4 | 0.00 | 0.03 | 0.00 | 50 | 1013.2 |
| 20260507143026 | 13 | 180 | 0.0 | 8.0 | 0.00 | 0.03 | 0.00 | 50 | 1013.1 |
| 20260507142505 | 13 | 216 | 0.0 | 8.0 | 0.00 | 0.03 | 0.00 | 50 | 1013.2 |
| 20260507142011 | 13 | 150 | 0.0 | 1.6 | 0.00 | 0.03 | 0.00 | 53 | 1013.2 |
| 20260507141518 | 13 | 232 | 0.0 | 3.2 | 0.00 | 0.03 | 0.00 | 1013.2 | |
| 20260507141007 | 13 | 192 | 0.0 | 3.2 | 0.00 | 0.03 | 0.00 | 58 | 1013.3 |
| 20260507140508 | 13 | 281 | 0.0 | 3.2 | 0.00 | 0.03 | 0.00 | 58 | 1013.4 |
| 20260507140023 | 12 | 317 | 0.0 | 3.2 | 0.00 | 0.05 | 0.00 | 57 | 1013.4 |
| 20260507135508 | 12 | 275 | 0.0 | 6.4 | 0.00 | 0.05 | 0.00 | 56 | 1013.6 |
| 20260507135008 | 12 | 204 | 1.6 | 6.4 | 0.00 | 0.05 | 0.00 | 54 | 1013.6 |
| 20260507134504 | 12 | 329 | 0.0 | 6.4 | 0.00 | 0.05 | 0.00 | 56 | 1013.5 |
| 20260507134002 | 12 | 205 | 0.0 | 14.5 | 0.00 | 0.05 | 0.00 | 58 | 1013.5 |
| 20260507133504 | 12 | 219 | 0.0 | 14.5 | 0.00 | 0.05 | 0.00 | 59 | 1013.6 |
| 20260507133018 | 12 | 205 | 0.0 | 6.4 | 0.00 | 0.05 | 0.00 | 62 | 1013.6 |
| 20260507132504 | 11 | 284 | 0.0 | 0.0 | 0.00 | 0.05 | 0.00 | 61 | 1013.7 |
| 20260507132008 | 11 | 169 | 0.0 | 0.0 | 0.00 | 0.05 | 0.00 | 64 | 1013.8 |
| 20260507131518 | 11 | 105 | 0.0 | 0.0 | 0.00 | 0.05 | 0.00 | 66 | 1013.8 |
| 20260507131006 | 10 | 65 | 0.0 | 0.0 | 0.00 | 0.05 | 0.00 | 69 | 1013.7 |
| 20260507130505 | 10 | 142 | 0.0 | 0.0 | 0.00 | 0.05 | 0.00 | 72 | 1013.7 |
| 20260507130020 | 10 | 142 | 0.0 | 0.0 | 0.00 | 0.05 | 0.00 | 75 | 1013.7 |
| 20260507125507 | 8 | 112 | 0.0 | 0.0 | 0.00 | 0.05 | 0.00 | 76 | 1013.8 |
| 20260507125006 | 8 | 173 | 0.0 | 0.0 | 0.00 | 0.05 | 0.00 | 76 | 1013.8 |
| 20260507124528 | 8 | 98 | 0.0 | 0.0 | 0.00 | 0.08 | 0.00 | 78 | 1013.8 |
| 20260507124010 | 7 | 80 | 0.0 | 0.0 | 0.00 | 0.08 | 0.00 | 82 | 1013.8 |
| 20260507123504 | 6 | 143 | 0.0 | 0.0 | 0.00 | 0.08 | 0.00 | 84 | 1013.8 |
| 20260507123013 | 6 | 139 | 0.0 | 0.0 | 0.00 | 0.10 | 0.00 | 86 | 1013.9 |
| 20260507122503 | 6 | 139 | 0.0 | 0.0 | 0.00 | 0.10 | 0.00 | 87 | 1014.1 |
| 20260507122004 | 5 | 190 | 0.0 | 0.0 | 0.00 | 0.10 | 0.00 | 87 | 1013.9 |
| 20260507121518 | 5 | 188 | 0.0 | 0.0 | 0.00 | 0.10 | 0.00 | 88 | 1013.9 |
| 20260507121007 | 5 | 273 | 0.0 | 0.0 | 0.00 | 0.13 | 0.00 | 89 | 1013.8 |
| 20260507120504 | 5 | 279 | 0.0 | 0.0 | 0.00 | 0.13 | 0.00 | 89 | 1013.9 |
| 20260507120020 | 5 | 281 | 0.0 | 0.0 | 0.00 | 0.13 | 0.00 | 90 | 1014.0 |
| 20260507115506 | 4 | 288 | 0.0 | 0.0 | 0.00 | 0.15 | 0.00 | 91 | 1013.9 |
| 20260507115008 | 4 | 287 | 0.0 | 0.0 | 0.00 | 0.15 | 0.00 | 91 | 1013.9 |
| 20260507114521 | 3 | 287 | 0.0 | 0.0 | 0.00 | 0.15 | 0.00 | 91 | 1013.8 |
| 20260507114008 | 3 | 288 | 0.0 | 0.0 | 0.00 | 0.15 | 0.00 | 91 | 1013.8 |
| 20260507113509 | 3 | 287 | 0.0 | 0.0 | 0.00 | 0.15 | 0.00 | 91 | 1013.8 |
| 20260507113030 | 3 | 287 | 0.0 | 0.0 | 0.00 | 0.15 | 0.00 | 91 | 1013.7 |
| 20260507112505 | 3 | 287 | 0.0 | 0.0 | 0.00 | 0.15 | 0.00 | 91 | 1013.7 |
| 20260507112005 | 3 | 287 | 0.0 | 0.0 | 0.00 | 0.15 | 0.00 | 91 | 1013.8 |
| 20260507111511 | 3 | 287 | 0.0 | 0.0 | 0.00 | 0.15 | 0.00 | 91 | 1013.9 |
| 20260507111004 | 3 | 287 | 0.0 | 0.0 | 0.00 | 0.15 | 0.00 | 91 | 1013.7 |
| 20260507110504 | 3 | 287 | 0.0 | 0.0 | 0.00 | 0.18 | 0.00 | 90 | 1013.7 |
| 20260507110017 | 3 | 287 | 0.0 | 0.0 | 0.00 | 0.20 | 0.00 | 90 | 1013.7 |
| 20260507105506 | 3 | 287 | 0.0 | 0.0 | 0.00 | 0.23 | 0.00 | 90 | 1013.6 |
| 20260507105007 | 3 | 287 | 0.0 | 0.0 | 0.00 | 0.25 | 0.00 | 90 | 1013.5 |
| 20260507104520 | 3 | 287 | 0.0 | 0.0 | 0.00 | 0.28 | 0.00 | 90 | 1013.5 |
| 20260507104009 | 3 | 287 | 0.0 | 0.0 | 0.00 | 0.30 | 0.00 | 90 | 1013.5 |
| 20260507103509 | 3 | 287 | 0.0 | 0.0 | 0.00 | 0.33 | 0.00 | 90 | 1013.5 |
| 20260507103029 | 3 | 287 | 0.0 | 0.0 | 0.00 | 0.36 | 0.00 | 89 | 1013.5 |
| 20260507102507 | 3 | 287 | 0.0 | 0.0 | 0.00 | 0.41 | 0.00 | 89 | 1013.4 |
| 20260507102010 | 3 | 287 | 0.0 | 0.0 | 0.00 | 0.43 | 0.00 | 89 | 1013.5 |
| 20260507101534 | 3 | 287 | 0.0 | 0.0 | 0.00 | 0.48 | 0.00 | 89 | 1013.4 |
| 20260507101004 | 3 | 287 | 0.0 | 0.0 | 0.00 | 0.56 | 0.00 | 89 | 1013.3 |
| 20260507100504 | 3 | 287 | 0.0 | 0.0 | 0.00 | 0.61 | 0.00 | 89 | 1013.4 |
| 20260507100021 | 3 | 288 | 0.0 | 0.0 | 0.00 | 0.64 | 0.00 | 89 | 1013.3 |
| 20260507095505 | 3 | 287 | 0.0 | 0.0 | 0.00 | 0.71 | 0.00 | 89 | 1013.3 |
| 20260507095010 | 3 | 287 | 0.0 | 0.0 | 0.00 | 0.76 | 0.00 | 89 | 1013.3 |
| 20260507094518 | 3 | 287 | 0.0 | 0.0 | 0.00 | 0.79 | 0.00 | 88 | 1013.3 |
| 20260507094010 | 3 | 288 | 0.0 | 0.0 | 0.00 | 0.81 | 0.00 | 88 | 1013.4 |
| 20260507093508 | 3 | 287 | 0.0 | 0.0 | 0.00 | 0.86 | 0.00 | 89 | 1013.4 |
| 20260507093022 | 3 | 287 | 0.0 | 0.0 | 0.00 | 0.91 | 0.00 | 88 | 1013.4 |
| 20260507092506 | 3 | 287 | 0.0 | 0.0 | 0.00 | 0.94 | 0.00 | 88 | 1013.4 |
| 20260507092009 | 3 | 287 | 0.0 | 0.0 | 0.00 | 0.97 | 0.00 | 88 | 1013.4 |
| 20260507091531 | 3 | 287 | 0.0 | 0.0 | 0.00 | 1.02 | 0.00 | 88 | 1013.6 |
| 20260507091013 | 4 | 287 | 0.0 | 0.0 | 0.00 | 1.07 | 0.00 | 88 | 1013.5 |
| 20260507090509 | 4 | 287 | 0.0 | 0.0 | 0.00 | 1.12 | 0.00 | 88 | 1013.5 |
| 20260507090013 | 4 | 287 | 0.0 | 0.0 | 0.00 | 1.14 | 0.00 | 87 | 1013.5 |
| 20260507085503 | 4 | 287 | 0.0 | 0.0 | 0.00 | 1.19 | 0.00 | 87 | 1013.4 |
| 20260507085008 | 4 | 287 | 0.0 | 0.0 | 0.00 | 1.22 | 0.00 | 87 | 1013.3 |
| 20260507084521 | 5 | 287 | 0.0 | 0.0 | 0.00 | 1.24 | 0.00 | 87 | 1013.4 |
| 20260507084008 | 5 | 287 | 0.0 | 0.0 | 0.00 | 1.30 | 0.00 | 87 | 1013.4 |
| 20260507083507 | 5 | 287 | 0.0 | 0.0 | 0.00 | 1.30 | 0.00 | 86 | 1013.4 |
| 20260507083020 | 5 | 287 | 0.0 | 0.0 | 0.00 | 1.32 | 0.00 | 86 | 1013.3 |
| 20260507082509 | 5 | 287 | 0.0 | 0.0 | 0.00 | 1.32 | 0.00 | 86 | 1013.4 |
| 20260507082008 | 5 | 288 | 0.0 | 0.0 | 0.00 | 1.32 | 0.00 | 86 | 1013.4 |
| 20260507081527 | 5 | 287 | 0.0 | 0.0 | 0.00 | 1.32 | 0.00 | 85 | 1013.4 |
| 20260507081009 | 5 | 287 | 0.0 | 0.0 | 0.00 | 1.32 | 0.00 | 85 | 1013.4 |
| 20260507080508 | 5 | 287 | 0.0 | 0.0 | 0.00 | 1.32 | 0.00 | 85 | 1013.5 |
| 20260507080027 | 5 | 287 | 0.0 | 0.0 | 0.00 | 1.32 | 0.00 | 84 | 1013.5 |
| 20260507075508 | 6 | 287 | 0.0 | 0.0 | 0.00 | 1.32 | 0.00 | 84 | 1013.4 |
| 20260507075005 | 6 | 287 | 0.0 | 0.0 | 0.00 | 1.32 | 0.00 | 83 | 1013.4 |
| 20260507074515 | 6 | 288 | 0.0 | 0.0 | 0.00 | 1.32 | 0.00 | 83 | 1013.4 |
| 20260507074004 | 6 | 287 | 0.0 | 0.0 | 0.00 | 1.32 | 0.00 | 81 | 1013.4 |
| 20260507073508 | 6 | 287 | 0.0 | 0.0 | 0.00 | 1.32 | 0.00 | 81 | 1013.3 |
| 20260507073018 | 6 | 287 | 0.0 | 0.0 | 0.00 | 1.32 | 0.00 | 79 | 1013.4 |
| 20260507072507 | 6 | 287 | 0.0 | 0.0 | 0.00 | 1.32 | 0.00 | 79 | 1013.4 |
| 20260507072007 | 6 | 287 | 0.0 | 0.0 | 0.00 | 1.32 | 0.00 | 78 | 1013.4 |
| 20260507071526 | 7 | 287 | 0.0 | 0.0 | 0.00 | 1.32 | 0.00 | 77 | 1013.4 |
| 20260507071008 | 7 | 287 | 0.0 | 0.0 | 0.00 | 1.37 | 0.00 | 76 | 1013.4 |
| 20260507070508 | 7 | 287 | 0.0 | 0.0 | 0.00 | 1.37 | 0.00 | 76 | 1013.4 |
| 20260507070039 | 7 | 287 | 0.0 | 0.0 | 0.00 | 1.37 | 0.00 | 74 | 1013.5 |
| 20260507065510 | 7 | 287 | 0.0 | 0.0 | 0.00 | 1.37 | 0.00 | 72 | 1013.5 |
| 20260507065011 | 7 | 287 | 0.0 | 0.0 | 0.00 | 1.40 | 0.00 | 71 | 1013.4 |
| 20260507064530 | 8 | 287 | 0.0 | 0.0 | 0.00 | 1.42 | 0.00 | 71 | 1013.3 |
| 20260507064009 | 8 | 287 | 0.0 | 0.0 | 0.00 | 1.42 | 0.00 | 70 | 1013.3 |
| 20260507063507 | 8 | 287 | 0.0 | 0.0 | 0.00 | 1.45 | 0.00 | 69 | 1013.3 |
| 20260507063020 | 8 | 288 | 0.0 | 0.0 | 0.00 | 1.45 | 0.00 | 68 | 1013.3 |
| 20260507062510 | 8 | 288 | 0.0 | 0.0 | 0.00 | 1.47 | 0.00 | 67 | 1013.3 |
| 20260507062008 | 8 | 287 | 0.0 | 0.0 | 0.00 | 1.47 | 0.00 | 66 | 1013.3 |
| 20260507061525 | 8 | 287 | 0.0 | 0.0 | 0.00 | 1.47 | 0.00 | 65 | 1013.3 |
| 20260507061011 | 8 | 287 | 0.0 | 0.0 | 0.00 | 1.47 | 0.00 | 65 | 1013.4 |
| 20260507060508 | 8 | 287 | 0.0 | 0.0 | 0.00 | 1.52 | 0.00 | 64 | 1013.4 |
| 20260507060024 | 9 | 287 | 0.0 | 0.0 | 0.00 | 1.52 | 0.00 | 64 | 1013.4 |
| 20260507055508 | 9 | 287 | 0.0 | 0.0 | 0.00 | 1.52 | 0.00 | 65 | 1013.6 |
| 20260507055009 | 9 | 287 | 0.0 | 0.0 | 0.00 | 1.52 | 0.00 | 65 | 1013.7 |
| 20260507054528 | 9 | 287 | 0.0 | 0.0 | 0.00 | 1.52 | 0.00 | 64 | 1013.8 |
| 20260507054009 | 9 | 288 | 0.0 | 0.0 | 0.00 | 1.52 | 0.00 | 65 | 1013.8 |
| 20260507053510 | 9 | 288 | 0.0 | 0.0 | 0.00 | 1.55 | 0.00 | 64 | 1014.0 |
| 20260507053031 | 9 | 304 | 0.0 | 0.0 | 0.00 | 1.55 | 0.00 | 65 | 1014.0 |
| 20260507052504 | 9 | 311 | 0.0 | 0.0 | 0.00 | 1.57 | 0.00 | 65 | 1014.1 |
| 20260507052009 | 9 | 314 | 0.0 | 0.0 | 0.00 | 1.60 | 0.00 | 65 | 1014.1 |
| 20260507051520 | 9 | 302 | 0.0 | 0.0 | 0.00 | 1.60 | 0.00 | 65 | 1014.1 |
| 20260507051009 | 9 | 305 | 0.0 | 0.0 | 0.00 | 1.60 | 0.00 | 64 | 1014.0 |
| 20260507050503 | 9 | 308 | 0.0 | 0.0 | 0.00 | 1.63 | 0.00 | 64 | 1014.1 |
| 20260507050015 | 9 | 311 | 0.0 | 0.0 | 0.00 | 1.63 | 0.00 | 64 | 1014.1 |
| 20260507045504 | 10 | 311 | 0.0 | 0.0 | 0.00 | 1.63 | 0.00 | 64 | 1014.1 |
| 20260507045005 | 10 | 298 | 0.0 | 0.0 | 0.00 | 1.63 | 0.00 | 64 | 1014.1 |
| 20260507044508 | 10 | 302 | 0.0 | 0.0 | 0.00 | 1.63 | 0.00 | 65 | 1014.1 |
| 20260507044010 | 10 | 302 | 0.0 | 0.0 | 0.00 | 1.63 | 0.00 | 65 | 1014.1 |
| 20260507043504 | 10 | 302 | 0.0 | 0.0 | 0.00 | 1.63 | 0.00 | 65 | 1014.1 |
| 20260507043014 | 10 | 302 | 0.0 | 0.0 | 0.00 | 1.63 | 0.00 | 62 | 1014.1 |
| 20260507042507 | 10 | 297 | 0.0 | 0.0 | 0.00 | 1.63 | 0.00 | 62 | 1014.2 |
| 20260507042007 | 10 | 297 | 0.0 | 0.0 | 0.00 | 1.63 | 0.00 | 62 | 1013.8 |
| 20260507041521 | 10 | 297 | 0.0 | 0.0 | 0.00 | 1.63 | 0.00 | 63 | 1013.9 |
| 20260507041011 | 10 | 297 | 0.0 | 0.0 | 0.00 | 1.63 | 0.00 | 62 | 1014.0 |
| 20260507040509 | 10 | 297 | 0.0 | 0.0 | 0.00 | 1.63 | 0.00 | 63 | 1013.9 |
| 20260507040006 | 10 | 297 | 0.0 | 0.0 | 0.00 | 1.63 | 0.00 | 63 | 1013.8 |
| 20260507035504 | 10 | 297 | 0.0 | 0.0 | 0.00 | 1.63 | 1.63 | 61 | 1013.7 |
| 20260507035008 | 10 | 297 | 0.0 | 0.0 | 0.00 | 1.63 | 1.63 | 63 | 1013.8 |
| 20260507034509 | 10 | 297 | 0.0 | 0.0 | 0.00 | 1.63 | 1.63 | 61 | 1013.8 |
| 20260507034003 | 10 | 297 | 0.0 | 0.0 | 0.00 | 1.63 | 1.63 | 61 | 1013.7 |
| 20260507033503 | 10 | 295 | 0.0 | 0.0 | 0.00 | 1.63 | 1.63 | 61 | 1013.8 |
| 20260507033013 | 10 | 300 | 0.0 | 0.0 | 0.00 | 1.63 | 1.63 | 63 | 1013.5 |
| 20260507032504 | 10 | 298 | 0.0 | 0.0 | 0.00 | 1.63 | 1.63 | 62 | 1013.7 |
| 20260507032008 | 10 | 299 | 0.0 | 0.0 | 0.00 | 1.63 | 1.63 | 62 | 1013.7 |
| 20260507031521 | 10 | 299 | 0.0 | 0.0 | 0.00 | 1.63 | 1.63 | 62 | 1013.5 |
| 20260507031009 | 10 | 296 | 0.0 | 0.0 | 0.00 | 1.63 | 1.63 | 62 | 1013.4 |
| 20260507030509 | 10 | 296 | 0.0 | 0.0 | 0.00 | 1.63 | 1.63 | 63 | 1013.5 |
| 20260507030025 | 10 | 341 | 0.0 | 0.0 | 0.00 | 1.63 | 1.63 | 62 | 1013.5 |
| 20260507025509 | 10 | 286 | 0.0 | 0.0 | 0.00 | 1.63 | 1.63 | 62 | 1013.5 |
| 20260507025005 | 10 | 286 | 0.0 | 0.0 | 0.00 | 1.63 | 1.63 | 61 | 1013.4 |
| 20260507024509 | 10 | 286 | 0.0 | 0.0 | 0.00 | 1.63 | 1.63 | 61 | 1013.4 |
| 20260507024005 | 10 | 282 | 0.0 | 0.0 | 0.00 | 1.63 | 1.63 | 60 | 1013.2 |
| 20260507023506 | 10 | 326 | 0.0 | 0.0 | 0.00 | 1.63 | 1.63 | 60 | 1013.3 |
| 20260507023009 | 10 | 21 | 0.0 | 0.0 | 0.00 | 1.63 | 1.63 | 59 | 1013.2 |
| 20260507022503 | 11 | 5 | 0.0 | 0.0 | 0.00 | 1.63 | 1.63 | 60 | 1013.1 |
| 20260507022007 | 11 | 9 | 0.0 | 0.0 | 0.00 | 1.63 | 1.63 | 61 | 1013.2 |
| 20260507021514 | 11 | 5 | 0.0 | 1.6 | 0.00 | 1.63 | 1.63 | 61 | 1013.3 |
| 20260507021008 | 11 | 5 | 0.0 | 1.6 | 0.00 | 1.63 | 1.63 | 58 | 1013.2 |
| 20260507020508 | 11 | 304 | 0.0 | 0.0 | 0.00 | 1.63 | 1.63 | 59 | 1013.1 |
| 20260507020023 | 11 | 36 | 0.0 | 0.0 | 0.00 | 1.63 | 1.63 | 59 | 1013.0 |
| 20260507015508 | 11 | 23 | 0.0 | 0.0 | 0.00 | 1.63 | 1.63 | 59 | 1013.1 |
| 20260507015008 | 11 | 24 | 0.0 | 0.0 | 0.00 | 1.63 | 1.63 | 59 | 1012.9 |
| 20260507014527 | 11 | 24 | 0.0 | 0.0 | 0.00 | 1.63 | 1.63 | 58 | 1012.5 |
| 20260507014004 | 11 | 13 | 0.0 | 0.0 | 0.00 | 1.63 | 1.63 | 59 | 1012.7 |
| 20260507013505 | 11 | 13 | 0.0 | 0.0 | 0.00 | 1.63 | 1.63 | 58 | 1012.7 |
| 20260507013008 | 11 | 13 | 0.0 | 3.2 | 0.00 | 1.63 | 1.63 | 57 | 1012.8 |
| 20260507012505 | 11 | 22 | 0.0 | 3.2 | 0.00 | 1.63 | 1.63 | 59 | 1012.7 |
| 20260507012007 | 11 | 321 | 0.0 | 0.0 | 0.00 | 1.63 | 1.63 | 59 | 1012.5 |
| 20260507011528 | 11 | 352 | 0.0 | 0.0 | 0.00 | 1.63 | 1.63 | 59 | 1012.7 |
| 20260507011009 | 11 | 343 | 0.0 | 0.0 | 0.00 | 1.63 | 1.63 | 58 | 1012.7 |
| 20260507010510 | 11 | 342 | 0.0 | 0.0 | 0.00 | 1.63 | 1.63 | 59 | 1012.7 |
| 20260507010021 | 11 | 338 | 0.0 | 0.0 | 0.00 | 1.63 | 1.63 | 59 | 1012.8 |
| 20260507005508 | 11 | 338 | 0.0 | 0.0 | 0.00 | 1.63 | 1.63 | 59 | 1013.0 |
| 20260507005010 | 11 | 337 | 0.0 | 0.0 | 0.00 | 1.63 | 1.63 | 58 | 1013.0 |
| 20260507004524 | 11 | 350 | 0.0 | 3.2 | 0.00 | 1.63 | 1.63 | 58 | 1013.2 |
| 20260507004009 | 11 | 325 | 0.0 | 3.2 | 0.00 | 1.63 | 1.63 | 58 | 1013.1 |
| 20260507003512 | 12 | 272 | 0.0 | 3.2 | 0.00 | 1.63 | 1.63 | 59 | 1013.0 |
| 20260507003008 | 12 | 321 | 0.0 | 3.2 | 0.00 | 1.63 | 1.63 | 60 | 1013.0 |
| 20260507002506 | 12 | 308 | 0.0 | 3.2 | 0.00 | 1.63 | 1.63 | 59 | 1013.2 |
| 20260507002006 | 12 | 22 | 0.0 | 0.0 | 0.00 | 1.63 | 1.63 | 59 | 1013.0 |
| 20260507001519 | 12 | 292 | 0.0 | 3.2 | 0.00 | 1.63 | 1.63 | 58 | 1012.9 |
| 20260507001007 | 12 | 294 | 0.0 | 3.2 | 0.00 | 1.63 | 1.63 | 59 | 1012.8 |
| 20260507000506 | 12 | 344 | 0.0 | 3.2 | 0.00 | 1.63 | 1.63 | 60 | 1012.7 |
| 20260507000019 | 12 | 344 | 0.0 | 9.7 | 0.00 | 1.63 | 1.63 | 61 | 1012.8 |
| 20260506235508 | 12 | 333 | 0.0 | 9.7 | 0.00 | 1.63 | 1.63 | 62 | 1012.8 |
| 20260506235007 | 12 | 276 | 0.0 | 6.4 | 0.00 | 1.63 | 1.63 | 63 | 1012.7 |
| 20260506234522 | 12 | 311 | 0.0 | 1.6 | 0.00 | 1.63 | 1.63 | 65 | 1012.5 |
| 20260506234008 | 12 | 325 | 0.0 | 1.6 | 0.00 | 1.63 | 1.63 | 66 | 1012.4 |
| 20260506233510 | 12 | 331 | 0.0 | 0.0 | 0.00 | 1.63 | 1.63 | 66 | 1012.3 |
| 20260506233026 | 12 | 320 | 0.0 | 4.8 | 0.00 | 1.63 | 1.63 | 65 | 1012.2 |
| 20260506232509 | 12 | 333 | 0.0 | 4.8 | 0.00 | 1.63 | 1.63 | 64 | 1012.2 |
| 20260506232001 | 12 | 282 | 0.0 | 4.8 | 0.00 | 1.63 | 1.63 | 64 | 1012.1 |